Dewpoint
58 58 59 61 61 61 62 62 61 59 60 61 60 60 59 59 57 51 36 42 53 56 55 45 41 37 36 33 33 30 23 22 20 17 23 28 24 26 27 26 25 25 26 29 32
56 58 59 60 61 61 61 61 61 60 60 61 60 60 59 57 52 38 42 54 54 56 45 40 34 34 32 33 33 28 27 26 25 26 25 26 25 26 24 23 23 24 26 28 30
56 58 59 60 60 60 60 61 61 60 60 61 60 59 59 58 38 35 47 56 55 55 50 48 42 32 29 32 31 29 25 28 26 28 26 25 23 24 23 20 23 25 28 30 31
57 58 59 60 59 60 59 61 61 61 60 61 60 60 58 53 24 35 44 48 51 53 45 38 31 28 28 28 30 27 28 28 27 25 24 24 21 21 22 23 28 28 29 29 30
57 58 59 59 59 59 59 61 61 60 60 60 60 58 53 32 32 37 43 47 43 44 34 33 31 30 27 26 26 27 24 25 25 24 24 21 20 21 24 26 26 26 26 26 26
57 58 58 59 59 60 61 61 62 60 60 59 59 57 37 28 35 35 37 35 34 34 35 33 32 31 29 28 26 26 25 25 24 22 21 19 20 20 23 24 24 24 25 25 25
57 58 58 58 59 61 61 62 61 60 59 59 58 54 31 30 37 33 36 34 34 34 32 34 33 29 30 27 29 27 23 24 23 23 20 19 19 21 23 23 22 23 24 24 24
56 57 57 58 59 61 61 61 60 60 59 59 58 43 29 33 35 31 31 34 34 34 33 33 30 31 30 30 26 23 22 22 23 23 23 23 18 23 23 21 21 22 23 23 23
55 56 56 58 57 59 59 57 57 58 59 58 49 31 27 32 31 31 29 26 32 33 33 31 31 29 25 25 21 22 19 23 24 23 23 20 20 23 22 21 20 21 21 22 22
54 55 55 56 55 58 59 59 58 57 57 56 45 28 31 31 33 27 28 27 29 30 30 30 28 25 25 23 19 21 23 23 23 19 19 20 22 22 22 21 21 20 20 20 18
53 53 53 53 55 54 51 48 33 31 33 31 31 31 31 32 32 26 28 28 29 28 25 28 21 21 22 21 23 22 21 18 21 20 18 20 22 21 21 20 20 20 20 18 16
52 52 50 50 51 53 49 42 39 38 29 31 31 31 32 33 24 24 27 25 25 25 27 24 21 22 22 21 19 19 18 19 19 21 19 22 21 21 20 20 19 16 16 15 15
50 51 50 48 50 48 48 46 51 46 31 31 29 30 31 33 24 23 27 27 23 25 23 21 20 23 20 21 20 20 18 18 17 20 22 22 21 19 20 13 12 13 15 16 17
48 50 50 48 44 47 44 51 52 49 22 26 27 27 28 32 20 26 29 26 22 24 26 21 22 21 19 19 21 18 21 20 19 18 13 19 16 20 21 10 12 14 16 18 20
49 50 50 47 47 47 46 52 52 38 8 26 25 29 26 21 22 26 30 25 24 24 20 20 20 21 18 19 23 19 20 19 20 19 18 17 17 20 21 10 13 16 18 21 22
49 51 47 42 46 49 53 53 41 16 13 22 24 25 21 23 23 27 28 29 29 23 22 21 23 23 21 22 21 20 18 18 20 18 13 15 14 18 10 11 15 18 20 22 23
50 50 44 45 38 48 53 38 19 15 25 20 20 24 24 21 23 26 27 27 24 17 20 23 22 24 23 19 19 19 16 2 3 1 3 12 15 16 12 15 17 19 21 22 23
49 49 46 49 51 54 42 24 15 23 24 27 22 25 22 23 22 27 27 27 28 26 23 21 16 23 24 19 18 18 17 5 -4 -3 -0 16 17 6 13 16 18 20 22 22 24
49 47 40 43 53 48 31 25 25 26 26 23 25 22 22 25 24 26 27 28 29 28 22 22 19 24 24 21 20 16 17 19 16 16 12 19 17 8 12 15 17 20 21 22 26
44 42 37 46 51 41 30 29 29 31 30 27 22 22 22 24 24 24 27 29 27 29 28 25 19 22 23 24 22 18 20 10 13 4 -1 7 18 11 10 15 18 21 22 24 27
40 33 41 48 45 35 27 30 29 32 31 26 24 24 25 25 24 26 28 29 29 27 26 22 22 18 19 19 18 14 16 16 13 13 10 7 6 7 13 17 20 22 21 26 26
41 26 41 44 34 37 34 34 33 32 32 30 30 28 27 26 25 28 28 29 29 28 23 20 20 14 17 20 21 18 13 11 6 3 9 9 5 13 15 18 21 21 22 27 25
36 36 47 45 25 33 35 34 34 32 31 30 30 30 28 26 26 29 30 29 26 23 14 17 14 9 3 13 10 6 5 5 6 9 4 3 4 9 15 18 19 21 25 25 24
39 27 36 38 37 33 31 32 31 33 31 31 29 30 28 27 27 28 30 30 25 22 25 20 15 12 -1 3 8 5 7 8 5 4 4 5 4 4 15 17 20 22 25 25 23
42 37 37 32 32 33 33 34 31 29 31 31 28 28 27 25 25 25 29 25 21 20 19 14 5 8 8 10 10 8 8 7 6 5 4 2 4 9 16 18 22 24 25 24 21
35 37 36 34 34 32 33 31 30 30 30 27 28 27 25 24 23 22 22 19 16 17 13 16 7 12 6 10 9 9 9 6 6 6 4 8 12 14 18 23 23 25 24 23 21
41 41 36 34 34 33 32 30 30 29 28 27 29 26 24 22 21 20 18 17 17 16 15 14 13 11 -1 8 9 8 7 6 5 7 10 12 14 17 21 23 23 24 23 22 21
Wind_Speed
12 12 11 9 8 7 5 3 4 6 5 5 4 4 3 1 1 2 4 2 3 7 6 6 4 6 3 3 2 3 4 7 7 4 3 7 11 11 2 11 23 13 18 12 22
14 11 8 7 9 7 6 3 3 6 7 6 5 4 4 2 3 7 2 5 5 3 1 2 4 3 3 2 1 3 3 1 2 1 3 5 8 8 10 18 15 16 20 23 34
12 10 10 9 10 7 4 1 3 7 7 7 6 4 2 1 3 6 3 4 5 2 2 2 4 2 1 0 1 3 2 3 5 2 1 5 18 9 13 17 10 13 17 24 33
13 13 11 10 9 6 2 2 6 9 8 7 6 4 1 0 3 4 4 2 1 0 4 4 3 2 2 3 2 2 6 2 2 5 2 8 12 21 26 11 11 16 17 29 30
13 12 10 11 9 5 1 3 7 9 8 7 4 1 1 8 3 4 5 5 4 1 3 2 3 2 2 4 5 4 3 1 4 4 11 22 17 23 22 15 16 22 31 29 27
12 11 10 10 9 7 5 8 9 8 7 5 3 1 3 18 4 5 4 3 2 3 6 4 2 3 3 3 2 4 6 7 2 11 9 19 9 8 11 10 24 28 26 26 27
12 11 10 9 9 10 11 11 9 7 6 4 2 2 14 6 4 8 3 2 2 2 3 2 2 3 3 5 4 4 5 9 8 10 9 16 15 15 10 18 25 23 21 23 22
11 10 10 8 8 10 11 10 8 7 5 3 1 2 8 3 4 6 8 1 4 3 1 2 2 1 2 4 5 4 6 5 6 3 3 4 8 11 5 27 20 20 19 20 21
10 11 10 6 8 9 9 8 7 5 3 2 3 4 4 5 7 8 4 5 6 3 2 2 4 5 10 5 5 11 4 6 6 12 4 5 12 9 7 23 20 19 18 17 18
11 11 9 7 6 4 5 4 6 4 1 1 1 4 7 7 6 11 7 4 4 9 5 6 7 8 13 17 5 6 3 6 5 7 14 17 16 14 11 23 18 19 19 20 23
12 11 9 7 3 2 1 2 4 8 13 10 3 6 5 8 4 16 7 4 5 8 6 6 15 11 9 4 1 3 4 6 2 7 7 11 19 14 11 20 20 20 23 23 22
12 12 10 7 4 3 4 5 4 3 11 9 10 5 4 2 6 25 12 6 10 10 3 7 11 11 4 9 10 7 3 6 10 9 10 18 15 13 14 16 18 20 21 20 21
13 13 11 8 3 6 6 9 1 1 6 7 6 5 6 5 6 16 13 4 8 13 14 12 7 7 8 12 16 6 2 5 9 7 11 22 8 11 13 20 21 20 17 21 22
13 14 13 7 4 5 3 1 3 2 6 13 10 7 12 2 7 7 12 3 6 6 3 7 8 8 10 6 7 4 4 15 14 6 3 5 2 5 11 18 20 19 19 20 22
12 13 10 4 10 4 4 0 2 2 5 9 6 5 9 9 3 16 10 6 8 5 4 2 7 10 10 9 5 6 24 16 3 7 1 3 2 4 4 15 17 17 16 20 22
10 12 2 4 4 1 1 2 2 3 5 3 5 7 6 8 7 6 14 13 4 7 11 5 3 4 6 7 5 17 13 5 5 4 1 3 2 2 4 5 10 11 15 19 21
8 11 4 3 4 1 2 2 2 8 3 4 3 5 4 8 7 8 9 25 12 8 12 6 5 4 4 5 6 18 12 6 1 5 3 2 7 5 7 6 8 10 13 18 19
7 6 6 4 2 2 3 3 8 1 2 0 2 3 5 10 7 10 5 10 11 8 7 8 5 10 10 3 5 6 7 6 6 8 13 7 7 7 6 4 6 8 10 17 22
5 2 3 5 3 2 3 9 4 2 0 1 2 5 4 5 3 6 8 6 7 10 5 9 3 5 3 4 4 7 9 1 4 2 4 3 6 3 1 7 12 12 18 17 19
2 2 3 3 3 4 7 6 3 1 1 2 3 2 3 6 5 5 4 5 6 7 2 2 4 2 5 3 5 3 2 5 5 6 9 3 2 5 13 16 14 18 19 16 17
2 3 2 2 3 10 7 4 4 1 1 3 3 2 4 4 4 3 3 2 5 8 5 3 1 2 1 5 5 6 3 5 2 2 5 8 2 6 8 9 13 17 18 17 17
3 3 3 1 6 5 5 6 4 2 6 4 5 4 3 3 3 3 3 1 5 3 4 2 0 6 2 5 4 2 4 4 3 6 6 5 4 10 3 6 8 13 16 13 12
3 2 2 1 6 6 4 4 4 2 4 3 3 2 1 3 3 3 2 1 5 4 2 3 1 8 3 1 3 5 3 1 1 2 6 5 3 2 8 11 17 19 13 10 15
4 5 4 6 3 12 9 4 5 3 4 5 4 2 3 2 4 5 3 2 1 2 0 1 2 4 7 3 3 8 13 3 1 3 5 8 18 19 22 22 24 25 14 15 19
4 3 1 6 4 10 5 6 6 4 2 3 3 2 3 3 2 2 3 1 1 2 3 2 3 3 9 9 5 5 5 5 6 6 2 12 14 12 18 16 17 12 11 15 20
7 7 5 5 6 11 3 4 6 5 2 2 5 3 2 3 2 6 3 2 1 2 1 2 1 5 7 4 10 6 4 5 6 5 6 12 12 7 14 12 20 7 12 18 20
3 2 7 2 5 5 4 5 7 11 3 5 7 4 4 5 5 5 6 6 4 1 0 2 2 2 4 8 2 2 3 6 3 4 4 7 12 14 20 20 23 12 16 18 18
Wind_Direction
23 23 23 29 28 26 22 44 104 121 104 105 112 125 134 132 296 39 49 284 293 316 334 312 329 321 354 333 17 89 58 55 13 30 353 349 19 2 48 64 51 48 48 9 18
15 11 14 22 25 14 11 29 103 123 114 114 118 130 134 120 107 60 266 273 277 300 18 26 330 339 344 323 44 82 92 132 337 127 41 30 30 349 41 50 46 42 26 30 40
8 1 11 10 10 0 6 43 136 134 122 129 140 153 165 191 89 355 312 280 252 211 179 280 292 213 344 176 215 152 154 213 337 179 71 38 53 14 106 50 35 66 43 39 44
4 4 6 0 358 355 5 148 146 137 135 151 163 180 212 18 64 299 284 303 322 71 318 341 15 33 1 333 258 209 250 238 330 351 35 84 90 63 78 93 71 65 62 51 46
1 4 3 358 3 0 57 142 132 136 148 162 156 169 18 64 52 277 284 290 316 307 320 325 61 54 266 296 328 205 323 307 300 58 75 85 95 96 78 79 72 63 55 53 50
358 1 359 6 16 32 103 120 129 140 143 145 151 257 85 73 292 298 271 5 8 16 10 54 26 280 283 303 15 326 285 297 335 77 92 100 91 78 69 79 63 59 56 53 50
358 357 2 18 44 65 97 116 130 139 132 143 137 347 72 69 332 328 292 267 299 29 10 26 1 26 333 334 349 293 331 44 53 147 155 104 47 82 94 75 67 62 58 55 48
0 0 12 30 72 84 95 107 115 123 130 131 86 55 78 294 320 14 9 329 312 283 290 317 13 351 1 318 20 24 46 48 9 16 75 119 113 79 80 83 71 65 59 54 46
357 8 15 37 83 96 96 103 109 108 134 133 50 79 40 334 12 352 355 307 318 310 341 345 42 52 16 34 39 26 33 14 356 18 342 69 131 115 91 86 73 64 57 49 41
359 8 22 41 69 119 120 129 144 130 69 265 18 64 5 330 320 340 322 31 13 340 45 40 48 55 27 32 38 339 345 316 314 2 75 97 103 74 56 76 68 58 49 42 36
4 4 17 32 42 44 101 53 47 42 37 82 85 93 345 326 23 353 351 63 41 59 46 29 59 24 358 10 276 268 289 296 346 26 26 112 95 80 64 66 60 48 38 36 27
3 3 5 0 19 77 68 89 125 136 80 51 65 48 354 40 26 6 9 65 51 46 70 53 42 343 95 35 30 9 343 346 310 355 46 98 87 82 67 61 55 54 41 30 21
357 1 356 348 16 52 84 127 344 37 86 26 38 18 345 31 23 0 16 18 58 57 64 82 354 22 41 24 10 348 88 314 289 324 98 117 106 111 74 64 53 43 36 29 12
349 348 352 344 101 130 106 177 4 6 82 357 358 16 348 87 39 12 4 35 42 62 76 62 5 48 29 35 11 338 241 300 289 300 211 220 219 123 93 65 48 33 28 16 6
347 346 358 70 139 146 153 235 356 88 69 336 356 326 15 75 312 2 16 53 51 15 44 14 19 27 20 351 344 300 307 305 291 194 322 5 141 141 36 41 28 21 22 12 4
351 349 18 52 63 125 26 23 59 68 67 0 5 12 27 24 21 17 16 33 47 67 50 46 32 44 339 324 0 329 325 60 89 126 220 119 129 160 50 49 21 16 18 5 357
350 357 59 97 134 150 106 62 62 65 331 0 11 3 67 13 31 38 35 43 31 14 11 343 31 350 5 0 357 12 12 6 329 356 258 41 33 89 96 67 36 19 10 354 353
346 0 46 58 44 112 77 85 72 146 71 119 8 39 57 17 34 30 58 35 21 30 49 18 0 4 351 26 311 353 40 56 324 304 294 343 160 157 125 97 30 36 5 359 355
348 31 52 3 22 64 95 64 129 174 252 69 73 68 23 18 52 80 59 36 19 20 62 4 306 323 351 351 351 347 31 283 260 266 277 151 105 136 132 30 22 9 358 356 350
117 73 36 0 42 69 78 111 131 57 12 127 107 31 55 7 45 61 43 356 340 9 325 7 298 287 321 340 32 70 6 332 0 307 298 314 149 311 12 7 359 350 348 348 348
93 97 340 67 66 62 93 109 123 51 189 66 119 98 79 38 51 61 26 29 341 332 31 11 216 266 51 26 329 352 39 48 272 219 278 301 339 64 36 3 339 345 346 352 347
111 114 340 66 59 54 96 125 128 117 36 78 89 92 101 62 74 112 133 159 346 321 330 24 106 286 245 316 354 71 86 76 20 302 277 256 271 103 35 323 330 343 353 346 350
112 117 31 101 124 99 106 81 78 99 40 85 100 64 131 113 111 122 154 179 21 29 12 343 351 313 17 35 14 34 39 83 238 53 265 286 307 166 347 338 351 348 358 346 343
119 126 15 62 78 128 134 128 112 44 76 75 115 94 115 99 40 149 152 195 61 80 39 331 194 222 257 314 357 305 327 331 127 298 305 289 315 333 347 345 340 338 357 347 349
47 133 155 134 103 123 114 129 134 131 79 62 88 119 159 151 128 137 136 155 60 33 32 40 264 306 283 310 309 308 356 46 87 30 327 307 306 318 331 320 319 333 342 346 350
143 141 68 89 104 113 57 140 151 129 117 137 157 157 138 155 192 197 156 132 117 87 61 13 289 2 299 73 2 95 63 74 91 7 296 314 308 294 307 312 327 341 349 352 350
140 77 112 15 107 127 153 143 162 135 61 76 148 124 97 131 113 98 87 97 115 117 18 65 23 17 274 332 147 123 70 64 340 298 292 318 304 312 323 326 326 347 350 349 342